Ukiah, CA

1:58 PM PST on December 11, 2017 (GMT -0800)
Ukiah Municipal

Weather History for KUKI - October, 2010

Change the Weather History Date:

Wednesday, October 13, 2010

  Actual Average Record
Temperature  
Mean Temperature 68 °F 61 °F  
Max Temperature 94 °F 79 °F 98 °F (1978)
Min Temperature 42 °F 44 °F 32 °F (1928)
Degree Days  
Heating Degree Days 0 4  
Month to date heating degree days 17 42  
Since 1 July heating degree days 47 75  
Cooling Degree Days 3 1  
Month to date cooling degree days 23 18  
Year to date cooling degree days 771 831  
Growing Degree Days 18 (Base 50)    
Moisture  
Dew Point 39 °F    
Average Humidity 46    
Maximum Humidity 76    
Minimum Humidity 15    
Precipitation  
Precipitation 0.00 in 0.05 in 2.23 in (2009)
Month to date precipitation 0.02 0.30  
Year to date precipitation 32.60 24.27  
Since 1 July precipitation 0.12  
Snow  
Snow 0.00 in - - ()
Month to date snowfall 0.0  
Since 1 July snowfall 0.0  
Since 1 September snowfall 0.0  
Snow Depth 0.00 in    
Sea Level Pressure  
Sea Level Pressure 30.06 in    
Wind  
Wind Speed 1 mph (SE)    
Max Wind Speed 6 mph    
Max Gust Speed -    
Visibility 10 miles    
Events      
T = Trace of Precipitation, MM = Missing Value Source: NWS Daily Summary

Daily Weather History Graph

Daily Weather History Graph

Search for Another Location

Airport or City:

Trip Planner

Search our weather history database for the weather conditions in past years. The results will help you decide how hot, cold, wet, or windy it might be!

Date:

Astronomy

Oct. 13, 2010 Rise Set
Actual Time 7:20 AM PDT 6:36 PM PDT
Civil Twilight 6:53 AM PDT 7:03 PM PDT
Nautical Twilight 6:22 AM PDT 7:34 PM PDT
Astronomical Twilight 5:51 AM PDT 8:05 PM PDT
Moon 1:42 PM PDT (10/13) 11:23 PM PDT (10/13)
Length of Visible Light 12h 10m
Length of Day
11h 16m
Waxing Crescent, 39% of the Moon is Illuminated
Oct 13
Waxing Crescent
Oct 14
First Quarter
Oct 22
Full
Oct 30
Last Quarter
Nov 5
New

Hourly Weather History & Observations

Time (PDT) Temp. Dew Point Humidity Pressure Visibility Wind Dir Wind Speed Gust Speed Precip Events Conditions
12:56 AM 48.0 °F 39.0 °F 71% 30.06 in 10.0 mi Calm Calm - N/A   Clear
1:56 AM 48.9 °F 37.9 °F 66% 30.06 in 10.0 mi Calm Calm - N/A   Clear
2:56 AM 46.9 °F 37.9 °F 71% 30.06 in 10.0 mi Calm Calm - N/A   Clear
3:56 AM 45.0 °F 37.0 °F 74% 30.06 in 10.0 mi Calm Calm - N/A   Clear
4:56 AM 45.0 °F 37.0 °F 74% 30.07 in 10.0 mi Calm Calm - N/A   Clear
5:56 AM 45.0 °F 37.0 °F 74% 30.08 in 10.0 mi Calm Calm - N/A   Clear
6:56 AM 44.1 °F 37.0 °F 76% 30.10 in 10.0 mi Calm Calm - N/A   Clear
7:56 AM 45.0 °F 37.9 °F 76% 30.11 in 10.0 mi Calm Calm - N/A   Clear
8:56 AM 53.1 °F 37.9 °F 57% 30.12 in 10.0 mi Calm Calm - N/A   Clear
9:56 AM 62.1 °F 36.0 °F 38% 30.11 in 10.0 mi Calm Calm - N/A   Clear
10:56 AM 69.1 °F 35.1 °F 29% 30.10 in 10.0 mi Calm Calm - N/A   Clear
11:56 AM 75.9 °F 37.0 °F 24% 30.08 in 10.0 mi Calm Calm - N/A   Clear
12:56 PM 82.9 °F 33.1 °F 17% 30.06 in 10.0 mi Calm Calm - N/A   Clear
1:56 PM 88.0 °F 37.0 °F 16% 30.03 in 10.0 mi Calm Calm - N/A   Clear
2:56 PM 91.9 °F 39.0 °F 16% 30.00 in 10.0 mi ESE 5.8 mph - N/A   Clear
3:56 PM 93.0 °F 39.0 °F 15% 29.99 in 10.0 mi ESE 5.8 mph - N/A   Clear
4:56 PM 93.0 °F 39.9 °F 16% 29.98 in 10.0 mi SE 3.5 mph - N/A   Clear
5:56 PM 84.9 °F 42.1 °F 22% 29.98 in 10.0 mi NW 4.6 mph - N/A   Clear
6:56 PM 80.1 °F 41.0 °F 25% 30.01 in 10.0 mi Calm Calm - N/A   Clear
7:56 PM 72.0 °F 43.0 °F 35% 30.03 in 10.0 mi Calm Calm - N/A   Clear
8:56 PM 70.0 °F 42.1 °F 36% 30.04 in 10.0 mi Calm Calm - N/A   Clear
9:56 PM 64.9 °F 42.1 °F 43% 30.05 in 10.0 mi Calm Calm - N/A   Clear
10:56 PM 63.0 °F 43.0 °F 48% 30.06 in 10.0 mi Calm Calm - N/A   Clear
11:56 PM 55.4 °F 46.4 °F 72% 30.08 in 10.0 mi Calm Calm - N/A   Clear